Regional Weather Roundup
Issued by NWS

Current Version | Previous Version | Text Only | Print | Product List | Glossary On
Versions: 1 2 3 4 5 6 7 8 9 10 11 12 13 14 15 16 17 18 19 20 21 22 23 24 25 26 27 28 29 30 31 32 33 34 35 36 37 38 39 40 41 42 43 44 45 46 47 48 49 50
000
ASUS44 KBMX 210210
RWRAL

ALABAMA REGIONAL WEATHER ROUNDUP
NATIONAL WEATHER SERVICE BIRMINGHAM AL
900 PM CDT TUE APR 20 2021

NOTE: "FAIR" INDICATES FEW OR NO CLOUDS BELOW 12,000 FEET
WITH NO SIGNIFICANT WEATHER AND/OR OBSTRUCTIONS TO VISIBILITY.

THE REMARK "TC" DENOTES TEMPERATURE IN DEGREES CELSIUS.

ALZ001>011-014-016>018-020-210300-
NORTH ALABAMA

CITY           SKY/WX    TMP DP  RH WIND       PRES   REMARKS
MUSCLE SHOALS  CLEAR     63  41  44 S5        29.92R
HUNTSVILLE     PTCLDY    60  41  49 W5        29.93R
DECATUR        CLEAR     61  43  51 W3        29.93R
HALEYVILLE     FAIR      56  46  69 CALM      29.97R
GADSDEN        CLEAR     54  50  86 CALM      29.94R
$$

ALZ012-013-022-023-030>036-040>044-210300-
WEST CENTRAL ALABAMA

CITY           SKY/WX    TMP DP  RH WIND       PRES   REMARKS
TUSCALOOSA     CLEAR     62  50  64 CALM      29.95R
DEMOPOLIS      FAIR      58  52  79 CALM      29.96R
$$

ALZ015-024>026-033>036-041>044-210300-
CENTRAL ALABAMA

CITY           SKY/WX    TMP DP  RH WIND       PRES   REMARKS
BIRMINGHAM     CLEAR     66  41  40 SW6       29.97R
MONTGOMERY     CLEAR     61  52  72 S5        29.95R
SHELBY CO ARPT CLEAR     61  48  62 CALM      29.95R
MAXWELL AFB    CLEAR     64  48  57 CALM      29.93R
GREENVILLE     NOT AVBL
SELMA          FAIR      57  54  88 SE5       29.95R
PRATTVILLE     FAIR      58  51  77 CALM      29.95R
BESSEMER       FAIR      60  45  57 SW3       29.96R
TALLADEGA      FAIR      58  48  67 CALM      29.94R
PELL CITY      MOCLDY    55  50  82 MISG      29.95R
SYLACAUGA      CLOUDY    57  50  76 CALM      29.95R
$$

ALZ019-021-028-029-037-038-045>048-210300-
EAST CENTRAL ALABAMA

CITY           SKY/WX    TMP DP  RH WIND       PRES   REMARKS
ANNISTON       CLEAR     57  48  72 CALM      29.94R
ALEXANDER CITY CLEAR     59  51  74 CALM      29.95R
AUBURN         CLEAR     65  47  52 SW6       29.97R
$$

ALZ051>064-210300-
SOUTHWEST ALABAMA

CITY           SKY/WX    TMP DP  RH WIND       PRES   REMARKS
MOBILE         PTCLDY    64  52  64 SW6       30.00R
BROOKLEY FIELD CLEAR     66  52  60 W6        30.00R
EVERGREEN      CLEAR     61  53  75 CALM      29.97R
$$

ALZ049-050-065>069-210300-
SOUTHEAST ALABAMA

CITY           SKY/WX    TMP DP  RH WIND       PRES   REMARKS
DOTHAN         CLEAR     67  52  58 S3        29.99R
OZARK          CLEAR     67  51  55 CALM      29.95R
TROY           CLEAR     61  52  72 CALM      29.97R
EUFAULA        HAZE      58  53  84 CALM      29.96R VSB 3/4
$$



USA.gov is the U.S. government's official web portal to all federal, state and local government web resources and services.